Seward, AK

8:09 AM AKDT on July 27, 2017 (GMT -0800)
Seward

Weather History for PAWD - October, 2012

Change the Weather History Date:

Saturday, October 6, 2012

  Actual Average Record
Temperature  
Mean Temperature 49 °F -  
Max Temperature 53 °F 48 °F 56 °F (1993)
Min Temperature 46 °F 38 °F 27 °F (1958)
Degree Days  
Heating Degree Days 16    
Moisture  
Dew Point 47 °F    
Average Humidity 94    
Maximum Humidity 100    
Minimum Humidity 83    
Precipitation  
Precipitation 0.56 in - - ()
Sea Level Pressure  
Sea Level Pressure 30.20 in    
Wind  
Wind Speed 0 mph (SSE)    
Max Wind Speed 5 mph    
Max Gust Speed -    
Visibility 6 miles    
Events Rain    
Averages and records for this station are not official NWS values.
T = Trace of Precipitation, MM = Missing Value Source: NWS Daily Summary

Daily Weather History Graph

Daily Weather History Graph

Search for Another Location

Airport or City:

Trip Planner

Search our weather history database for the weather conditions in past years. The results will help you decide how hot, cold, wet, or windy it might be!

Date:

Astronomy

Oct. 06, 2012 Rise Set
Actual Time 8:17 AM AKDT 7:12 PM AKDT
Civil Twilight 7:35 AM AKDT 7:54 PM AKDT
Nautical Twilight 6:46 AM AKDT 8:42 PM AKDT
Astronomical Twilight 5:56 AM AKDT 9:32 PM AKDT
Moon 10:24 PM AKDT (10/6) 3:33 PM AKDT (10/6)
Length of Visible Light 12h 19m
Length of Day
10h 55m
Waning Gibbous, 64% of the Moon is Illuminated
Oct 6
Waning Gibbous
Oct 7
Last Quarter
Oct 15
New
Oct 21
First Quarter
Oct 29
Full

Hourly Weather History & Observations

Time (AKDT) Temp. Dew Point Humidity Pressure Visibility Wind Dir Wind Speed Gust Speed Precip Events Conditions
12:53 AM 48.0 °F 46.9 °F 96% 30.17 in 7.0 mi Calm Calm - 0.07 in Rain Light Rain
1:21 AM 48.2 °F 46.4 °F 93% 30.17 in 5.0 mi Calm Calm - 0.05 in Rain Light Rain
1:40 AM 48.2 °F 48.2 °F 100% 30.15 in 6.0 mi Calm Calm - 0.08 in Rain Light Rain
1:53 AM 48.9 °F 48.0 °F 97% 30.14 in 6.0 mi Calm Calm - 0.10 in Rain Rain
2:34 AM 48.2 °F 46.4 °F 93% 30.16 in 4.0 mi Calm Calm - 0.09 in Rain Rain
2:50 AM 48.2 °F 46.4 °F 93% 30.16 in 4.0 mi ESE 3.5 mph - 0.13 in Rain Rain
2:53 AM 48.0 °F 46.9 °F 96% 30.16 in 4.0 mi SE 3.5 mph - 0.14 in Rain Rain
3:16 AM 48.2 °F 48.2 °F 100% 30.15 in 3.0 mi Calm Calm - 0.06 in Rain Rain
3:27 AM 48.2 °F 46.4 °F 93% 30.15 in 3.0 mi Calm Calm - 0.08 in Rain Rain
3:53 AM 48.0 °F 48.0 °F 100% 30.16 in 4.0 mi Calm Calm - 0.13 in Rain Rain
4:15 AM 48.2 °F 48.2 °F 100% 30.14 in 5.0 mi Calm Calm - 0.04 in Rain Rain
4:38 AM 48.2 °F 46.4 °F 93% 30.13 in 9.0 mi Calm Calm - 0.06 in Rain Light Rain
4:48 AM 48.2 °F 46.4 °F 93% 30.13 in 10.0 mi Calm Calm - 0.06 in Rain Light Rain
4:53 AM 48.0 °F 46.9 °F 96% 30.14 in 10.0 mi Calm Calm - 0.06 in Rain Light Rain
5:39 AM 48.2 °F 46.4 °F 93% 30.14 in 10.0 mi SSW 3.5 mph - 0.02 in Rain Light Rain
5:53 AM 48.0 °F 46.9 °F 96% 30.14 in 8.0 mi Calm Calm - 0.03 in Rain Light Rain
6:06 AM 48.2 °F 46.4 °F 93% 30.14 in 8.0 mi Calm Calm - 0.01 in Rain Light Rain
6:12 AM 48.2 °F 46.4 °F 93% 30.14 in 8.0 mi Calm Calm - 0.01 in Rain Light Rain
6:30 AM 46.4 °F 46.4 °F 100% 30.15 in 1.8 mi Calm Calm - 0.01 in Rain Light Rain
6:45 AM 46.4 °F 46.4 °F 100% 30.15 in 2.0 mi Calm Calm - 0.01 in Rain Light Rain
6:53 AM 46.9 °F 46.9 °F 100% 30.15 in 2.5 mi Calm Calm - 0.01 in   Overcast
6:57 AM 46.4 °F 46.4 °F 100% 30.15 in 1.8 mi Calm Calm - N/A   Overcast
7:11 AM 48.2 °F 46.4 °F 93% 30.16 in 3.0 mi Calm Calm - N/A   Overcast
7:32 AM 48.2 °F 46.4 °F 93% 30.16 in 6.0 mi Calm Calm - N/A   Overcast
7:46 AM 48.2 °F 46.4 °F 93% 30.16 in 3.0 mi Calm Calm - N/A   Overcast
7:53 AM 48.0 °F 48.0 °F 100% 30.17 in 2.5 mi Calm Calm - 0.01 in Rain Light Rain
8:02 AM 48.2 °F 46.4 °F 93% 30.17 in 1.8 mi Calm Calm - 0.00 in Rain Light Rain
8:06 AM 48.2 °F 46.4 °F 93% 30.16 in 2.5 mi Calm Calm - 0.00 in Rain Light Rain
8:17 AM 46.4 °F 46.4 °F 100% 30.17 in 1.2 mi Calm Calm - 0.00 in   Overcast
8:51 AM 48.2 °F 46.4 °F 93% 30.18 in 1.0 mi Calm Calm - 0.00 in   Overcast
8:53 AM 48.0 °F 46.9 °F 96% 30.18 in 1.2 mi Calm Calm - 0.00 in   Overcast
9:15 AM 48.2 °F 46.4 °F 93% 30.19 in 2.5 mi Calm Calm - 0.01 in   Overcast
9:24 AM 48.2 °F 46.4 °F 93% 30.19 in 5.0 mi Calm Calm - 0.01 in   Overcast
9:51 AM 48.2 °F 46.4 °F 93% 30.20 in 10.0 mi Calm Calm - 0.01 in   Overcast
9:53 AM 48.0 °F 46.9 °F 96% 30.20 in 10.0 mi Calm Calm - 0.01 in   Overcast
10:53 AM 48.9 °F 48.0 °F 97% 30.22 in 4.0 mi Calm Calm - 0.00 in Rain Light Rain
11:05 AM 48.2 °F 48.2 °F 100% 30.23 in 1.8 mi Calm Calm - N/A   Overcast
11:14 AM 48.2 °F 48.2 °F 100% 30.23 in 3.0 mi Calm Calm - N/A   Overcast
11:35 AM 48.2 °F 48.2 °F 100% 30.24 in 2.0 mi Calm Calm - N/A   Overcast
11:49 AM 48.2 °F 48.2 °F 100% 30.24 in 4.0 mi Calm Calm - N/A   Overcast
11:53 AM 48.9 °F 48.0 °F 97% 30.24 in 5.0 mi Calm Calm - N/A   Overcast
12:53 PM 50.0 °F 48.9 °F 96% 30.25 in 10.0 mi Calm Calm - N/A   Overcast
1:28 PM 50.0 °F 48.2 °F 94% 30.26 in 10.0 mi Calm Calm - N/A   Overcast
1:53 PM 51.1 °F 48.9 °F 92% 30.27 in 10.0 mi Calm Calm - N/A   Overcast
2:06 PM 51.8 °F 48.2 °F 88% 30.27 in 10.0 mi Calm Calm - N/A   Overcast
2:26 PM 51.8 °F 48.2 °F 88% 30.26 in 10.0 mi South 3.5 mph - N/A   Scattered Clouds
2:36 PM 51.8 °F 48.2 °F 88% 30.26 in 10.0 mi ESE 3.5 mph - N/A   Partly Cloudy
2:53 PM 52.0 °F 46.9 °F 83% 30.26 in 10.0 mi Calm Calm - N/A   Clear
3:53 PM 52.0 °F 48.0 °F 86% 30.27 in 10.0 mi SSE 4.6 mph - N/A   Clear
4:53 PM 51.1 °F 46.0 °F 83% 30.28 in 10.0 mi SSE 4.6 mph - N/A   Scattered Clouds
5:53 PM 50.0 °F 46.0 °F 86% 30.28 in 10.0 mi South 4.6 mph - N/A   Overcast
6:53 PM 48.9 °F 45.0 °F 86% 30.28 in 10.0 mi Calm Calm - N/A   Overcast
7:53 PM 48.0 °F 45.0 °F 89% 30.30 in 10.0 mi Calm Calm - N/A   Overcast
8:53 PM 48.0 °F 45.0 °F 89% 30.31 in 10.0 mi Calm Calm - N/A   Overcast
9:53 PM 46.9 °F 45.0 °F 93% 30.32 in 10.0 mi Calm Calm - N/A   Overcast
10:53 PM 46.9 °F 45.0 °F 93% 30.33 in 10.0 mi Calm Calm - N/A   Overcast
11:53 PM 46.9 °F 45.0 °F 93% 30.34 in 10.0 mi Calm Calm - 0.00 in Rain Light Rain